Theta_e
337 340 339 335 333 337 340 341 342 340 340 341 343 341 340 337 332 325 321 317 315 314
330 336 338 335 332 334 338 340 341 340 336 339 342 339 337 331 325 322 317 314 313 311
331 333 333 331 332 330 335 337 340 339 339 341 341 339 328 324 322 319 317 315 310 307
328 330 330 331 330 330 329 330 336 337 339 335 332 329 322 321 320 317 315 313 310 306
324 325 326 329 331 330 328 330 330 335 334 333 329 326 322 318 316 314 311 310 309 306
325 322 322 327 327 330 330 331 328 331 331 329 327 324 321 317 314 312 310 311 308 304
319 320 323 326 326 327 330 328 331 331 327 325 322 320 317 314 311 309 309 309 307 303
321 321 318 326 324 322 323 323 325 321 319 319 317 315 312 310 307 305 304 303 304 304
322 324 325 326 322 320 319 319 319 316 314 311 310 305 307 307 305 303 303 303 304 305
321 323 324 325 321 320 318 319 318 318 315 310 307 303 302 303 302 299 298 298 298 299
320 320 319 318 318 315 315 312 310 308 309 308 306 301 300 301 298 297 297 297 297 297
318 318 316 315 314 314 311 308 306 305 303 300 299 298 298 298 298 297 298 298 298 298
318 318 316 315 313 312 310 308 306 304 302 300 298 297 297 299 299 298 297 298 298 300
320 318 316 314 311 309 306 306 302 301 301 300 299 298 300 298 299 297 297 297 296 297
Wind_Speed
11 8 8 7 4 7 7 8 13 10 13 11 10 8 5 4 3 6 7 10 7 6
7 7 7 6 6 6 7 7 11 11 10 16 17 7 7 7 8 9 7 9 9 8
1 4 5 4 6 7 8 5 11 15 13 13 11 10 14 10 6 11 6 5 11 8
3 3 3 4 5 6 4 5 10 12 10 7 13 15 16 15 10 9 9 6 10 7
6 8 5 5 5 6 7 6 6 10 10 13 21 16 21 16 11 10 8 6 9 9
8 8 10 6 4 5 7 9 9 13 12 13 13 12 17 22 17 14 9 5 8 9
9 17 8 5 6 5 6 10 11 12 13 13 15 15 16 19 20 17 12 7 5 6
8 9 7 8 9 9 7 8 12 15 14 14 14 12 17 17 17 16 12 11 8 7
1 3 10 10 11 12 11 10 14 16 18 16 11 19 24 22 17 15 15 11 11 11
6 4 9 11 12 13 11 10 12 12 15 17 20 28 25 25 14 16 12 12 12 10
7 9 9 11 11 12 10 9 10 11 11 13 11 32 30 25 16 15 12 11 12 12
10 12 12 13 14 8 10 9 10 11 13 17 13 22 30 25 16 17 14 12 11 12
11 11 11 11 14 13 11 12 11 11 12 20 18 15 22 22 14 16 12 10 10 13
12 12 11 10 13 12 15 13 13 14 12 14 16 15 10 13 14 13 12 10 8 6
Wind_Direction
196 198 205 193 178 203 214 200 190 187 166 200 241 237 179 137 141 107 118 115 99 106
177 180 199 190 179 205 211 195 187 176 182 217 203 174 126 133 129 117 111 105 106 100
231 185 195 168 210 202 216 178 174 183 197 217 216 148 113 102 92 108 92 100 102 96
68 5 200 218 237 204 195 167 147 173 168 165 120 147 94 97 81 83 86 89 111 109
57 357 308 238 214 179 163 166 145 152 145 149 127 122 115 117 110 96 93 107 108 105
109 272 271 247 198 164 141 130 123 129 129 125 133 135 132 123 121 117 117 133 121 124
182 227 226 125 147 121 122 136 144 127 121 124 124 126 126 124 129 131 125 113 116 103
199 214 211 141 126 111 99 108 112 114 108 113 119 125 124 119 125 117 111 102 94 85
150 97 148 141 128 120 117 124 124 124 121 115 108 114 125 125 119 114 117 114 99 102
117 108 137 130 129 120 121 126 125 128 130 129 129 119 112 111 115 111 114 108 111 109
122 114 118 118 114 119 111 117 111 102 113 117 130 131 126 123 117 112 114 119 123 126
133 137 134 137 126 114 112 109 108 109 116 112 115 127 121 119 121 119 114 117 129 133
143 149 151 151 136 138 126 124 118 113 119 127 123 119 121 124 127 122 125 129 128 110
139 131 127 128 117 126 117 117 108 107 114 121 129 122 108 118 127 133 133 135 132 131